Regional Weather Roundup
Issued by NWS Bismarck, ND

Home | Current Version | Previous Version | Text Only | Print | Product List | Glossary On
Versions: 1 2 3 4 5 6 7 8 9 10 11 12 13 14 15 16 17 18 19 20 21 22 23 24 25 26 27 28 29 30 31 32 33 34 35 36 37 38 39 40 41 42 43 44 45 46 47 48 49 50
000
ASUS43 KBIS 231220
RWRBIS

NWR BROADCAST TEXT
NATIONAL WEATHER SERVICE BISMARCK ND
700 AM CDT TUE SEP 23 2014

NOTE: "FAIR" INDICATES FEW OR NO CLOUDS BELOW 12,000 FEET WITH NO
SIGNIFICANT WEATHER AND/OR OBSTRUCTIONS TO VISIBILITY.


CITY           SKY/WX    TMP DP  RH WIND       PRES   REMARKS
WILLISTON      CLEAR     50  46  86 N5        29.85S
MINOT          CLEAR     51  47  86 CALM      29.88S
MINOT AFB      CLEAR     48  48  99 SE5       29.88S
BISMARCK       CLEAR     54  52  93 SE5       29.92S
DICKINSON      CLEAR     51  49  92 S10       29.86S
GARRISON         N/A     54  52  93 SE6       29.89S
HETTINGER ARPT PTCLDY    53  50  89 SE6       29.91R
JAMESTOWN      CLEAR     54  50  86 S9        29.98S
BEACH            N/A     48  48 100 S5        29.86F
CARRINGTON     FAIR      54  54 100 MISG      29.97S
CROSBY         FAIR      48  48 100 S7        29.85F
HARVEY         FAIR      50  50 100 E8        29.93S
HAZEN          FAIR      50  48  93 E3        29.90R
LINTON         CLOUDY    57  55  94 SE12      29.94R
MANDAN         FAIR      57  54  88 S13       29.92S
OAKES            N/A     54  54 100 SE8       30.02R
RUGBY          FAIR      54  50  87 SE8       29.92S
STANLEY        FAIR      48  48 100 SE6       29.87F
TIOGA          FAIR      45  45 100 E6        29.89F
WATFORD CITY   FAIR      45  45 100 CALM      29.84S
$$

CITY           SKY/WX    TMP DP  RH WIND       PRES   REMARKS
GRAND FORKS    CLEAR     52  48  86 S10       30.02S
GRAND FORKS AF CLEAR     51  51  98 S9        30.02S
DEVILS LAKE    CLEAR     55  46  71 SE9       29.95S
FARGO          CLEAR     56  48  74 SE12      30.04S
CANDO          FAIR      50  48  93 SE7       29.96S
CAVALIER       FAIR      48  48 100 S7        30.00S
GRAFTON        FAIR      50  48  93 S9        30.01S
GWINNER        MOSUNNY   54  54 100 SE7       30.04R
LANGDON        FAIR      50  48  93 SE8       29.98S
ROLLA          FAIR      50  50 100 S8        29.95S
WALHALLA       FAIR      52  50  93 S8        29.99R
$$

CITY           SKY/WX    TMP DP  RH WIND       PRES   REMARKS
ABERDEEN       CLOUDY    60  53  77 SE10      30.00S
MOBRIDGE       CLOUDY    63  55  75 S13       29.92R
BUFFALO          N/A     58  54  86 S7        29.84S
RAPID CITY     MOCLDY    59  54  83 CALM      29.89F
GLASGOW        CLEAR     49  44  83 NE5       29.84S
SIDNEY         CLEAR     46  45  93 CALM      29.86S
WOLF POINT     CLEAR     45  42  89 CALM      29.84S
GLENDIVE       CLEAR     50  46  87 CALM      29.86S
MILES CITY     MOCLDY    55  49  80 S5        29.87R
BAKER          PTCLDY    50  47  89 CALM      29.88S
$$

CITY           SKY/WX    TMP DP  RH WIND       PRES   REMARKS
BILLINGS       PTCLDY    59  47  64 SW16      29.97R
GREAT FALLS    CLEAR     59  46  62 SW13      29.96S
REGINA         CLEAR     50  48  93 SE9       29.83S
ESTEVAN        CLEAR     48  46  93 E6        29.86F
$$




USA.gov is the U.S. government's official web portal to all federal, state and local government web resources and services.